CFREE CYQL-CYLW

Flight info

Callsign CFREE
Flight time N/A
Altitude 28000
Route KNEIL DCT ROBTI NORIP5
Aircraft TBM8/L-SDFGRWY/S

Departure

Time 2026-04-19 21:58
Airport Lethbridge County Airport (CYQL)

Arrival

Time N/A
Airport Kelowna International Airport (CYLW)
Time Latitude Longitude Altitude Speed Heading
2026-04-19 21:40 49.63348 -112.78640 3016 ft 0 kts 319°
2026-04-19 21:50 49.63344 -112.78659 3016 ft 3 kts 187°
2026-04-19 21:51 49.63333 -112.78647 3016 ft 2 kts 130°
2026-04-19 21:51 49.63278 -112.78657 3016 ft 13 kts 248°
2026-04-19 21:51 49.63260 -112.78730 3016 ft 6 kts 250°
2026-04-19 21:51 49.63244 -112.78793 3016 ft 7 kts 250°
2026-04-19 21:52 49.63227 -112.78867 3016 ft 7 kts 251°
2026-04-19 21:52 49.63195 -112.78930 3016 ft 9 kts 201°
2026-04-19 21:52 49.63119 -112.78966 3016 ft 14 kts 200°
2026-04-19 21:52 49.63016 -112.79008 3015 ft 18 kts 202°
2026-04-19 21:53 49.62949 -112.79146 3015 ft 14 kts 251°
2026-04-19 21:53 49.62911 -112.79311 3014 ft 19 kts 251°
2026-04-19 21:53 49.62865 -112.79518 3016 ft 20 kts 249°
2026-04-19 21:53 49.62825 -112.79707 3016 ft 17 kts 246°
2026-04-19 21:54 49.62786 -112.79865 3017 ft 14 kts 253°
2026-04-19 21:54 49.62751 -112.80012 3018 ft 15 kts 248°
2026-04-19 21:54 49.62714 -112.80177 3018 ft 18 kts 251°
2026-04-19 21:54 49.62676 -112.80359 3018 ft 18 kts 250°
2026-04-19 21:55 49.62627 -112.80551 3016 ft 20 kts 251°
2026-04-19 21:55 49.62580 -112.80753 3014 ft 21 kts 250°
2026-04-19 21:55 49.62531 -112.80960 3015 ft 20 kts 249°
2026-04-19 21:55 49.62481 -112.81166 3015 ft 21 kts 250°
2026-04-19 21:56 49.62454 -112.81380 3016 ft 20 kts 277°
2026-04-19 21:56 49.62417 -112.81411 3016 ft 8 kts 71°
2026-04-19 21:56 49.62469 -112.81187 3015 ft 47 kts 70°
2026-04-19 21:56 49.62643 -112.80441 3017 ft 100 kts 70°
2026-04-19 21:57 49.62931 -112.79206 3047 ft 140 kts 68°
2026-04-19 21:57 49.63312 -112.77757 3252 ft 153 kts 59°
2026-04-19 21:57 49.63867 -112.76329 3510 ft 157 kts 51°
2026-04-19 21:57 49.64548 -112.74910 3638 ft 174 kts 48°
2026-04-19 21:58 49.65287 -112.73303 3920 ft 188 kts 53°
2026-04-19 21:58 49.66029 -112.71616 4464 ft 189 kts 51°
2026-04-19 21:58 49.67059 -112.70433 4924 ft 186 kts 11°
2026-04-19 21:58 49.68295 -112.70573 5329 ft 177 kts 331°
2026-04-19 21:59 49.69310 -112.71539 5915 ft 167 kts 305°
2026-04-19 21:59 49.69638 -112.73145 6443 ft 161 kts 258°
2026-04-19 21:59 49.69348 -112.74829 6836 ft 164 kts 262°
2026-04-19 21:59 49.69487 -112.76575 7294 ft 165 kts 282°
2026-04-19 22:00 49.69762 -112.78286 7813 ft 164 kts 279°
2026-04-19 22:00 49.69969 -112.80026 8309 ft 165 kts 279°
2026-04-19 22:00 49.70160 -112.81792 8752 ft 168 kts 279°
2026-04-19 22:00 49.70348 -112.83578 9208 ft 170 kts 280°
2026-04-19 22:01 49.70548 -112.85386 9683 ft 170 kts 280°
2026-04-19 22:01 49.70735 -112.87204 10124 ft 173 kts 280°
2026-04-19 22:01 49.70925 -112.89020 10493 ft 175 kts 281°
2026-04-19 22:01 49.71126 -112.90878 10878 ft 176 kts 281°
2026-04-19 22:02 49.71306 -112.92741 11279 ft 175 kts 280°
2026-04-19 22:02 49.71531 -112.94593 11662 ft 175 kts 282°
2026-04-19 22:02 49.71739 -112.96452 12075 ft 176 kts 280°
2026-04-19 22:02 49.71931 -112.98331 12498 ft 178 kts 280°
2026-04-19 22:03 49.72121 -113.00216 12900 ft 178 kts 280°
2026-04-19 22:03 49.72318 -113.02091 13359 ft 175 kts 280°
2026-04-19 22:03 49.72522 -113.03957 13747 ft 177 kts 281°
2026-04-19 22:03 49.72720 -113.05833 14113 ft 177 kts 280°
2026-04-19 22:04 49.72916 -113.07707 14461 ft 178 kts 280°
2026-04-19 22:04 49.73113 -113.09596 14813 ft 178 kts 280°
2026-04-19 22:04 49.73311 -113.11488 15170 ft 179 kts 280°
2026-04-19 22:04 49.73511 -113.13381 15535 ft 178 kts 279°
2026-04-19 22:05 49.73709 -113.15273 15897 ft 179 kts 279°
2026-04-19 22:05 49.73906 -113.17174 16226 ft 180 kts 279°
2026-04-19 22:05 49.74106 -113.19100 16545 ft 182 kts 278°
2026-04-19 22:05 49.74308 -113.21035 16913 ft 182 kts 278°
2026-04-19 22:06 49.74509 -113.22976 17273 ft 183 kts 278°
2026-04-19 22:06 49.74711 -113.24925 17616 ft 184 kts 278°
2026-04-19 22:06 49.74913 -113.26876 17978 ft 184 kts 278°
2026-04-19 22:06 49.75115 -113.28835 18319 ft 185 kts 278°
2026-04-19 22:07 49.75318 -113.30799 18630 ft 185 kts 278°
2026-04-19 22:07 49.75520 -113.32765 18942 ft 185 kts 278°
2026-04-19 22:07 49.75723 -113.34737 19248 ft 186 kts 277°
2026-04-19 22:07 49.75926 -113.36716 19551 ft 186 kts 277°
2026-04-19 22:08 49.76129 -113.38700 19852 ft 187 kts 277°
2026-04-19 22:08 49.76334 -113.40693 20162 ft 188 kts 277°
2026-04-19 22:08 49.76537 -113.42689 20480 ft 188 kts 277°
2026-04-19 22:08 49.76741 -113.44691 20780 ft 189 kts 277°
2026-04-19 22:09 49.76945 -113.46695 21084 ft 189 kts 277°
2026-04-19 22:09 49.77149 -113.48709 21395 ft 190 kts 277°
2026-04-19 22:09 49.77354 -113.50731 21696 ft 190 kts 277°
2026-04-19 22:10 49.77767 -113.54811 22296 ft 191 kts 277°
2026-04-19 22:10 49.77972 -113.56853 22590 ft 192 kts 277°